Terminal Aerodrome Forecast
Issued by NWS

Home | Current Version | Previous Version | Text Only | Print | Product List | Glossary On
Versions: 1 2 3 4 5 6 7 8 9 10 11 12 13 14 15 16 17 18
000
FTUS44 KMAF 242300
TAFINK
TAF
KINK 242322Z 2500/2524 27008KT P6SM FEW250
     FM250900 33010KT P6SM FEW250
     FM251800 02008KT P6SM SKC=

USA.gov is the U.S. government's official web portal to all federal, state and local government web resources and services.